Weather observations for the past three days for
Key West International Airport
Imperial (Metric)
Date Time (edt) Wind (mph) Vis. (mi.) Weather Sky Cond. Temperature (ºF) Relative Humidity Wind Chill (°F) Heat Index (°F) Pressure Precipitation (in)
Air Dwpt 6 hour altimeter (in) sea level (mb) 1 hr 3 hr 6 hr
Max. Min.
20 08:53 E 10 10.00 A Few Clouds FEW022 82.9 75.9 79% 91 29.99 1016.0
20 07:53 E 6 10.00 Partly Cloudy SCT022 82 75.9 82.9 79 82% 89 29.98 1015.8
20 06:53 E 7 10.00 Fair CLR 81 73.9 79% 86 29.95 1014.6
20 05:53 E 7 10.00 Fair CLR 82 75.9 82% 89 29.94 1014.5
20 04:53 E 5 10.00 Light Rain FEW025 SCT055 BKN070 79 73 82% 82 29.95 1014.7
20 03:53 E 12 10.00 Fair CLR 82.9 75 77% 90 29.95 1014.7
20 02:53 E 8 10.00 Partly Cloudy FEW024 SCT036 82.9 75.9 79% 91 29.95 1014.8
20 01:53 E 9 10.00 Fair CLR 82 75.9 84 82 82% 89 29.96 1015.1
20 00:53 E 10 G 17 10.00 Fair CLR 82.9 75 77% 90 29.96 1015.0
19 23:53 NE 10 G 20 10.00 Fair CLR 82.9 75 77% 90 29.97 1015.3
19 22:53 E 12 G 23 10.00 Fair CLR 84 73.9 72% 91 29.97 1015.4
19 20:53 E 12 G 26 10.00 A Few Clouds FEW024 84 75 74% 92 29.97 1015.4
19 19:53 E 20 G 26 10.00 Fair CLR 84 75 88 82.9 74% 92 29.96 1015.0 0.02
19 18:53 E 15 G 26 10.00 A Few Clouds FEW028 84.9 75 72% 93 29.93 1014.1
19 17:53 E 17 G 28 10.00 A Few Clouds FEW021 86 75.9 72% 96 29.91 1013.4
19 16:53 E 20 G 30 10.00 Thunderstorm in Vicinity FEW022 87.1 75.9 70% 98 29.94 1014.4 0.02
19 15:53 E 21 G 31 10.00 Partly Cloudy and Breezy FEW022 SCT039 SCT100 86 77 75% 97 29.94 1014.5
19 14:53 E 17 G 26 10.00 Partly Cloudy FEW031 SCT041 SCT049 84.9 79 82% 98 29.95 1014.8 0.02
19 13:53 E 15 10.00 Fair CLR 87.1 77 88 82 72% 99 29.97 1015.2
19 12:53 E 17 10.00 A Few Clouds FEW055 86 75.9 72% 96 29.97 1015.5
19 11:53 SE 18 10.00 Partly Cloudy FEW019 SCT035 84 75.9 77% 93 29.98 1015.6
19 10:53 E 16 10.00 A Few Clouds FEW040 FEW075 86 78.1 77% 98 29.96 1015.2
19 09:53 E 12 10.00 Mostly Cloudy FEW019 SCT025 BKN030 82 75 79% 89 29.94 1014.6
19 08:53 SE 13 10.00 Mostly Cloudy SCT024 BKN031 82.9 77 82% 92 29.93 1013.9
19 07:53 SE 13 10.00 Mostly Cloudy SCT022 BKN032 82 77 85% 90 29.9 1013.2 0.21
19 06:53 SE 9 G 20 10.00 Light Rain FEW020 SCT030 SCT043 80.1 75.9 87% 85 29.89 1012.7 0.02
19 05:53 E 6 10.00 Partly Cloudy SCT110 0 0 0% 29.89 1012.9
19 04:53 E 9 10.00 Light Rain SCT090 BKN110 0 0 0% 29.88 1012.5 0.11 0.19
19 03:53 SE 9 4.00 Heavy Rain FEW019 BKN044 OVC100 0 0 0% 29.89 1012.9 0.01
19 02:53 E 12 G 23 9.00 Light Rain FEW018 SCT060 OVC090 79 75 88% 83 29.89 1012.7 0.07
19 01:53 E 13 10.00 Mostly Cloudy FEW026 SCT055 BKN070 84 77 84.9 82 80% 94 29.91 1013.3
19 00:53 E 13 G 20 10.00 Mostly Cloudy FEW019 SCT044 BKN065 82 75 79% 89 29.91 1013.5
18 23:53 E 14 G 25 10.00 A Few Clouds FEW020 84 78.1 82% 95 29.92 1013.9
18 22:53 E 15 G 24 10.00 A Few Clouds FEW019 84 78.1 82% 95 29.91 1013.4
18 21:53 E 16 G 32 10.00 A Few Clouds FEW019 84 77 80% 94 29.91 1013.3
18 20:53 E 20 G 30 10.00 Mostly Cloudy SCT021 BKN029 84.9 77 77% 95 29.9 1013.0
18 19:53 E 20 G 30 10.00 Partly Cloudy SCT022 84.9 77 88 84.9 77% 95 29.88 1012.3
18 18:53 E 18 G 28 10.00 Partly Cloudy SCT020 86 77 75% 97 29.86 1011.6
18 17:53 E 21 G 30 10.00 Mostly Cloudy and Breezy SCT020 BKN026 86 77 75% 97 29.85 1011.3
18 16:53 E 18 G 30 10.00 Partly Cloudy SCT021 87.1 77 72% 99 29.85 1011.5
18 15:53 E 22 G 29 10.00 Mostly Cloudy and Breezy SCT020 SCT026 BKN030 87.1 78.1 75% 100 29.87 1012.0
18 14:53 E 21 G 30 10.00 Partly Cloudy and Breezy FEW021 SCT026 87.1 77 72% 99 29.88 1012.3
18 13:53 E 20 G 31 10.00 Partly Cloudy SCT022 SCT029 87.1 77 88 82.9 72% 99 29.88 1012.5
18 12:53 E 21 G 32 10.00 Partly Cloudy and Breezy FEW019 FEW024 SCT029 87.1 77 72% 99 29.9 1013.0
18 11:53 E 22 G 35 10.00 Mostly Cloudy and Breezy SCT022 BKN029 BKN036 87.1 77 72% 99 29.91 1013.4
18 10:53 E 20 G 29 10.00 Mostly Cloudy BKN020 BKN027 86 77 75% 97 29.9 1013.1
18 09:53 E 18 G 29 10.00 Mostly Cloudy SCT021 BKN032 84.9 77 77% 95 29.9 1013.1
18 08:53 E 21 G 32 10.00 Mostly Cloudy and Breezy FEW023 SCT029 BKN039 84 75.9 77% 93 29.9 1012.9
18 07:53 E 18 G 28 10.00 Partly Cloudy SCT020 SCT025 84 75.9 84 82.9 77% 93 29.89 1012.8
18 06:53 E 17 G 30 10.00 Light Rain SCT020 SCT032 BKN040 82.9 77 82% 92 29.88 1012.5
18 05:53 E 17 G 30 10.00 Mostly Cloudy SCT021 SCT026 BKN070 82.9 77 82% 92 29.88 1012.3
18 04:53 E 15 G 28 10.00 Mostly Cloudy SCT020 BKN031 82.9 77 82% 92 29.88 1012.2
18 03:53 E 15 G 26 10.00 Mostly Cloudy SCT017 BKN026 82.9 77 82% 92 29.88 1012.4
18 02:53 E 20 G 29 10.00 A Few Clouds FEW016 82.9 77 82% 92 29.89 1012.6
18 01:53 E 18 10.00 Partly Cloudy SCT031 82.9 77 84 82.9 82% 92 29.91 1013.3
18 00:53 E 21 G 29 10.00 A Few Clouds and Breezy FEW020 82.9 75.9 79% 91 29.92 1013.7
17 23:53 E 18 G 25 10.00 Fair CLR 82.9 73.9 74% 89 29.93 1013.9
17 22:53 E 13 G 24 10.00 A Few Clouds FEW018 84 78.1 82% 95 29.93 1014.0
17 21:53 E 16 G 25 10.00 Partly Cloudy SCT020 SCT024 84 77 80% 94 29.93 1014.1
17 20:53 E 16 G 24 10.00 A Few Clouds FEW020 FEW027 84 77 80% 94 29.92 1013.6
17 19:53 E 17 G 29 10.00 Partly Cloudy SCT020 84 77 88 84 80% 94 29.91 1013.3
17 18:53 E 20 G 30 10.00 A Few Clouds FEW020 84.9 75.9 75% 94 29.9 1012.9
17 17:53 E 21 G 32 10.00 A Few Clouds and Breezy FEW024 84.9 75.9 75% 94 29.9 1012.9
17 16:53 E 20 G 29 10.00 A Few Clouds FEW023 86 77 75% 97 29.9 1013.0
17 15:53 E 17 G 30 10.00 A Few Clouds FEW023 88 77 70% 100 29.91 1013.4
17 14:53 E 21 G 33 10.00 Fair and Breezy CLR 88 75.9 68% 99 29.92 1013.8
17 13:53 E 21 G 30 10.00 A Few Clouds and Breezy FEW030 88 75.9 88 84 68% 99 29.94 1014.4
17 12:53 E 15 G 30 10.00 Fair CLR 88 75.9 68% 99 29.95 1014.6
17 11:53 E 20 G 28 10.00 Fair CLR 88 77 70% 100 29.95 1014.6
17 10:53 E 14 G 28 10.00 Fair CLR 87.1 77 72% 99 29.95 1014.8
17 09:53 E 15 G 21 10.00 Partly Cloudy FEW018 SCT025 86 78.1 77% 98 29.96 1015.1
Date Time (edt) Wind (mph) Vis. (mi.) Weather Sky Cond. Air Dwpt Max. Min. Relative Humidity Wind Chill (°F) Heat Index (°F) altimeter (in) sea level (mb) 1 hr 3 hr 6 hr
6 hour
Temperature (ºF) Pressure Precipitation (in)